EW9499 Weather Reports


Display with metric or nautical units.
time (UTC)temp
F
wind
direction
speed
MPH
gust
MPH
rain 1hr
in
rain 24hr
in
rain mn
in
humidity
%
barometer
mb
20260906211518 90 0.0 1.0 0.00 0.00 0.00 35 1019.7
20260906210518 89 113 2.0 9.0 0.00 0.00 0.00 36 1019.8
20260906205518 89 0.0 1.0 0.00 0.00 0.00 36 1019.9
20260906204518 89 0.0 4.0 0.00 0.00 0.00 35 1020.5
20260906203537 90 113 1.0 7.0 0.00 0.00 0.00 36 1020.8
20260906202538 89 113 1.0 8.0 0.00 0.00 0.00 38 1021.0
20260906201517 90 0.0 2.0 0.00 0.00 0.00 36 1021.3
20260906200517 90 113 1.0 9.0 0.00 0.00 0.00 37 1021.5
20260906195517 90 135 6.0 10.0 0.00 0.00 0.00 38 1022.0
20260906194517 89 0.0 1.0 0.00 0.00 0.00 38 1022.1
20260906193519 89 0.0 1.0 0.00 0.00 0.00 37 1021.8
20260906192517 88 0.0 1.0 0.00 0.00 0.00 37 1022.1
20260906191517 88 0.0 3.0 0.00 0.00 0.00 39 1022.3
20260906190517 87 0.0 2.0 0.00 0.00 0.00 40 1022.1
20260906185517 86 0.0 0.0 0.00 0.00 0.00 41 1021.8
20260906184517 86 0.0 0.0 0.00 0.00 0.00 41 1022.1
20260906183537 87 0.0 0.0 0.00 0.00 0.00 37 1022.1
20260906182517 87 0.0 2.0 0.00 0.00 0.00 36 1022.3
20260906181537 86 0.0 0.0 0.00 0.00 0.00 39 1022.3
20260906180517 85 0.0 0.0 0.00 0.00 0.00 41 1022.4
20260906175517 85 0.0 0.0 0.00 0.00 0.00 39 1021.9
20260906174517 84 0.0 1.0 0.00 0.00 0.00 40 1022.2
20260906173517 84 0.0 0.0 0.00 0.00 0.00 43 1022.4
20260906172538 83 0.0 0.0 0.00 0.00 0.00 41 1022.5
20260906171517 83 0.0 0.0 0.00 0.00 0.00 39 1022.9
20260906170517 83 0.0 0.0 0.00 0.00 0.00 42 1023.0
20260906165517 82 0.0 2.0 0.00 0.00 0.00 43 1023.1
20260906164517 81 0.0 1.0 0.00 0.00 0.00 46 1023.2
20260906163517 80 0.0 0.0 0.00 0.00 0.00 44 1022.9
20260906162517 79 0.0 0.0 0.00 0.00 0.00 48 1023.3
20260906161517 78 0.0 0.0 0.00 0.00 0.00 49 1022.9
20260906160518 77 0.0 0.0 0.00 0.00 0.00 47 1022.9
20260906155517 76 0.0 0.0 0.00 0.00 0.00 49 1022.6
20260906154517 75 0.0 0.0 0.00 0.00 0.00 49 1022.0
20260906153517 75 0.0 0.0 0.00 0.00 0.00 50 1022.4
20260906152517 74 0.0 0.0 0.00 0.00 0.00 50 1021.9
20260906151517 73 0.0 1.0 0.00 0.00 0.00 52 1022.0
20260906150517 72 0.0 0.0 0.00 0.00 0.00 51 1021.9
20260906145517 71 0.0 1.0 0.00 0.00 0.00 52 1021.8
20260906144517 71 0.0 0.0 0.00 0.00 0.00 55 1021.9
20260906143517 70 0.0 1.0 0.00 0.00 0.00 57 1021.8
20260906142517 69 0.0 1.0 0.00 0.00 0.00 57 1021.6
20260906141517 67 0.0 0.0 0.00 0.00 0.00 61 1021.2
20260906140517 66 0.0 0.0 0.00 0.00 0.00 63 1021.1
20260906135537 65 0.0 0.0 0.00 0.00 0.00 67 1020.7
20260906134517 63 0.0 0.0 0.00 0.00 0.00 70 1020.2
20260906133517 62 0.0 0.0 0.00 0.00 0.00 72 1020.2
20260906132517 61 0.0 0.0 0.00 0.00 0.00 74 1020.1
20260906131537 61 0.0 0.0 0.00 0.00 0.00 76 1020.2
20260906130517 60 0.0 1.0 0.00 0.00 0.00 79 1020.0
20260906125517 59 0.0 1.0 0.00 0.00 0.00 81 1020.0
20260906124517 58 0.0 0.0 0.00 0.00 0.00 83 1019.9
20260906123517 57 0.0 1.0 0.00 0.00 0.00 83 1020.2
20260906122517 57 0.0 0.0 0.00 0.00 0.00 84 1020.0
20260906121517 57 0.0 0.0 0.00 0.00 0.00 84 1019.9
20260906120517 57 0.0 0.0 0.00 0.00 0.00 83 1019.9
20260906115517 58 0.0 0.0 0.00 0.00 0.00 83 1020.3
20260906114517 58 0.0 0.0 0.00 0.00 0.00 84 1020.8
20260906113517 58 0.0 0.0 0.00 0.00 0.00 84 1020.7
20260906112517 58 0.0 0.0 0.00 0.00 0.00 82 1020.9
20260906111517 59 0.0 0.0 0.00 0.00 0.00 81 1021.1
20260906110557 60 0.0 0.0 0.00 0.00 0.00 80 1021.1
20260906105537 60 0.0 0.0 0.00 0.00 0.00 78 1021.2
20260906104517 61 0.0 0.0 0.00 0.00 0.00 78 1021.5
20260906103517 61 0.0 0.0 0.00 0.00 0.00 78 1021.5
20260906102517 62 0.0 0.0 0.00 0.00 0.00 78 1021.5
20260906101537 62 0.0 0.0 0.00 0.00 0.00 78 1021.7
20260906100517 61 0.0 0.0 0.00 0.00 0.00 79 1021.3
20260906095516 61 0.0 0.0 0.00 0.00 0.00 79 1021.7
20260906094517 61 0.0 0.0 0.00 0.00 0.00 80 1021.8
20260906093517 61 0.0 0.0 0.00 0.00 0.00 79 1021.8
20260906092517 61 0.0 0.0 0.00 0.00 0.00 79 1021.8
20260906091517 61 0.0 0.0 0.00 0.00 0.00 78 1021.9
20260906090517 62 0.0 0.0 0.00 0.00 0.00 77 1022.4
20260906085537 63 0.0 0.0 0.00 0.00 0.00 74 1022.2
20260906084516 63 0.0 0.0 0.00 0.00 0.00 73 1022.1
20260906082537 65 0.0 0.0 0.00 0.00 0.00 69 1022.4
20260906081517 66 0.0 0.0 0.00 0.00 0.00 67 1022.7
20260906080516 67 0.0 0.0 0.00 0.00 0.00 65 1023.1
20260906075516 68 0.0 0.0 0.00 0.00 0.00 64 1023.2
20260906074517 69 0.0 0.0 0.00 0.00 0.00 64 1023.2
20260906073516 69 0.0 0.0 0.00 0.00 0.00 65 1022.9
20260906072516 69 0.0 0.0 0.00 0.00 0.00 65 1023.0
20260906071517 68 0.0 0.0 0.00 0.00 0.00 66 1023.1
20260906070517 67 0.0 0.0 0.00 0.00 0.00 67 1022.8
20260906065517 67 0.0 0.0 0.00 0.00 0.00 68 1022.7
20260906064517 67 0.0 0.0 0.00 0.00 0.00 68 1022.8
20260906063516 66 0.0 0.0 0.00 0.00 0.00 70 1022.7
20260906062516 65 0.0 0.0 0.00 0.00 0.00 71 1022.4
20260906061517 65 0.0 0.0 0.00 0.00 0.00 72 1021.8
20260906060517 65 0.0 0.0 0.00 0.00 0.00 73 1021.6
20260906055517 65 0.0 0.0 0.00 0.00 0.00 72 1021.2
20260906054516 65 0.0 0.0 0.00 0.00 0.00 72 1021.1
20260906053516 66 0.0 0.0 0.00 0.00 0.00 71 1021.2
20260906052516 66 0.0 0.0 0.00 0.00 0.00 70 1021.4
20260906051516 67 0.0 0.0 0.00 0.00 0.00 69 1021.3
20260906050516 67 0.0 0.0 0.00 0.00 0.00 68 1021.3
20260906045516 68 0.0 0.0 0.00 0.00 0.00 65 1021.6
20260906044516 69 0.0 0.0 0.00 0.00 0.00 65 1021.7
20260906043516 70 0.0 0.0 0.00 0.00 0.00 64 1021.8
20260906042516 71 0.0 0.0 0.00 0.00 0.00 64 1021.8
20260906041556 71 0.0 0.0 0.00 0.00 0.00 64 1021.2
20260906040516 71 0.0 0.0 0.00 0.00 0.00 65 1021.3
20260906035517 70 0.0 1.0 0.00 0.00 0.00 67 1020.9
20260906034516 71 0.0 0.0 0.00 0.00 0.00 67 1021.1
20260906033517 71 0.0 0.0 0.00 0.00 0.00 66 1021.0
20260906032536 72 0.0 0.0 0.00 0.00 0.00 64 1021.0
20260906031537 72 0.0 0.0 0.00 0.00 0.00 63 1020.8
20260906030517 73 0.0 0.0 0.00 0.00 0.00 62 1020.7
20260906025557 74 0.0 0.0 0.00 0.00 0.00 60 1020.6
20260906024517 74 0.0 0.0 0.00 0.00 0.00 59 1020.0
20260906023516 75 0.0 1.0 0.00 0.00 0.00 58 1020.1
20260906022517 76 0.0 1.0 0.00 0.00 0.00 56 1020.0
20260906021536 76 135 1.0 8.0 0.00 0.00 0.00 56 1019.7
20260906020516 77 0.0 2.0 0.00 0.00 0.00 55 1019.7
20260906015516 77 0.0 2.0 0.00 0.00 0.00 52 1018.8
20260906014556 77 0.0 0.0 0.00 0.00 0.00 48 1018.2
20260906013516 77 0.0 0.0 0.00 0.00 0.00 47 1017.9
20260906012516 77 0.0 0.0 0.00 0.00 0.00 46 1018.0
20260906011516 78 0.0 1.0 0.00 0.00 0.00 45 1018.3
20260906010516 78 0.0 1.0 0.00 0.00 0.00 44 1018.2
20260906005516 79 0.0 1.0 0.00 0.00 0.00 38 1018.1
20260906004516 81 0.0 0.0 0.00 0.00 0.00 36 1018.4
20260906003516 83 0.0 0.0 0.00 0.00 0.00 33 1018.8
20260906002516 84 0.0 0.0 0.00 0.00 0.00 31 1018.7
20260906001516 84 0.0 0.0 0.00 0.00 0.00 29 1018.5
20260906000536 85 0.0 0.0 0.00 0.00 0.00 29 1019.0
20260905235516 85 0.0 0.0 0.00 0.00 0.00 29 1019.0
20260905234516 86 0.0 0.0 0.00 0.00 0.00 30 1019.4
20260905233536 87 0.0 0.0 0.00 0.00 0.00 26 1018.8
20260905232516 87 0.0 0.0 0.00 0.00 0.00 26 1019.2
20260905231516 88 0.0 0.0 0.00 0.00 0.00 24 1019.1
20260905230516 88 0.0 0.0 0.00 0.00 0.00 24 1018.9
20260905225516 87 0.0 0.0 0.00 0.00 0.00 25 1018.9
20260905224516 87 0.0 0.0 0.00 0.00 0.00 25 1019.1
20260905223516 88 0.0 0.0 0.00 0.00 0.00 26 1019.2
20260905222516 88 0.0 0.0 0.00 0.00 0.00 27 1019.2
20260905221516 88 0.0 0.0 0.00 0.00 0.00 26 1019.6
20260905220516 88 0.0 0.0 0.00 0.00 0.00 26 1019.6
20260905215516 89 0.0 0.0 0.00 0.00 0.00 26 1019.6
20260905214516 89 0.0 0.0 0.00 0.00 0.00 28 1019.7
20260905213516 89 0.0 0.0 0.00 0.00 0.00 25 1019.7
20260905212516 90 0.0 0.0 0.00 0.00 0.00 25 1020.1